Погода в Эль-Курайате

Саудовская Аравия     31°19′51″N   37°20′42″E
темп.,
°C
ветер,
м/с
пор.,
м/с
влажн.,
%
обл.,
%
осадки,
мм/ч
давл.,
гПа
погр.,
м
19 сентября, вс
вс1900:00+25сз510270 0.0 1012160
03:00+23зсз47490 0.0 1012103
06:00+22зсз46550 0.0 101386
09:00+25сз67380 0.0 1014400
12:00+31сз44210 0.0 1013970
15:00+34сз56130 0.0 10101980
18:00+33сз68120 0.0 1010224
21:00+28сз59190 0.0 1013144
20 сентября, пн
пн2000:00+25сз59360 0.0 1013158
03:00+23зсз46380 0.0 1013102
06:00+22сз58400 0.0 1014111
09:00+26ссз55290 0.0 1014355
12:00+31ссз33200 0.0 1013855
15:00+34сз44150 0.0 10111401
18:00+33ссз45160 0.0 1010139
21:00+29сз48230 0.0 1012110
21 сентября, вт
вт2100:00+26сз48420 0.0 1013167
03:00+24зсз47440 0.0 1012114
06:00+23сз45440 0.0 101362
09:00+27сз22320 0.0 1014247
12:00+32сз11210 0.0 1012883
15:00+35сз33150 0.0 10091574
18:00+34ссз45140 0.0 1008162
21:00+30сз712230 0.0 1010320
22 сентября, ср
ср2200:00+26сз611360 0.0 1010288
03:00+24сз611351 0.0 1010220
06:00+23сз48360 0.0 1010137
09:00+26сз67300 0.0 1010435
12:00+32сз55160 0.0 1008992
15:00+35сз67120 0.0 10051929
18:00+32зсз810160 0.0 1006636
21:00+27сз711330 0.0 1007397
23 сентября, чт
чт2300:00+24зсз510410 0.0 1008354
03:00+22зсз58520 0.0 1008260
06:00+20зсз36710 0.0 1008151
09:00+23зсз67560 0.0 1009793
12:00+29зсз78280 0.0 10071636
15:00+30зсз1010260 0.0 10061941
18:00+28зсз911310 0.0 10071707
21:00+23зсз811480 0.0 1009768